Location: ??????
(41.3164°N, 22.6615°E)
Time: 10:55:35
(UTC+00:00)

FENGYUN 1C DEB - Visible Passes

Search period start: 17 August 2022 00:00
Search period end: 27 August 2022 00:00
Orbit: 852 x 877 km, 98.9° (Epoch: 16 August)

Date Brightness Start Highest point End Pass type
(mag) Time Alt. Az. Time Alt. Az. Time Alt. Az.
17 Aug ? 18:08:29 10° S 18:13:52 52° W 18:19:15 10° NNW visible
18 Aug ? 18:00:37 10° S 18:06:05 61° WSW 18:11:33 10° NNW visible
19 Aug ? 17:52:47 10° S 17:58:18 72° WSW 18:03:49 10° NNW visible
20 Aug ? 17:45:00 10° SSE 17:50:31 84° WSW 17:56:04 10° NNW visible
21 Aug ? 17:37:14 10° SSE 17:42:46 84° ENE 17:48:18 10° NNW visible
21 Aug ? 19:22:15 10° WSW 19:24:23 12° W 19:26:32 10° WNW visible
22 Aug ? 19:13:33 10° WSW 19:16:31 15° W 19:19:30 10° WNW visible
23 Aug ? 19:05:06 10° SW 19:08:39 17° W 19:12:13 10° NW visible
24 Aug ? 18:56:48 10° SW 19:00:48 20° W 19:04:49 10° NW visible
25 Aug ? 18:48:36 10° SSW 18:52:57 24° W 18:57:21 10° NW visible
26 Aug ? 18:40:28 10° SSW 18:45:07 28° W 18:49:49 10° NW visible
